Location: Coffee Ditch
(40.9640°N, 122.7500°W)
Time: 07:38:24
(UTC+00:00)

SJ 16-02 - Pass Details

Date: 08 September 2024
Orbit: 593 x 602 km, 75.0° (Epoch: 05 October)

Event Time Altitude Azimuth Distance (km) Brightness Sun altitude
Rises 12:58:14 0° 168° (SSE) 2,843 4.7 -9.5°
Reaches altitude 10° 13:00:43 10° 156° (SSE) 1,944 4.0 -9.1°
Maximum altitude 13:04:20 26° 99° (E) 1,191 3.7 -8.4°
Drops below altitude 10° 13:07:58 10° 43° (NE) 1,951 4.9 -7.8°
Sets 13:10:27 0° 31° (NNE) 2,857 5.5 -7.3°
